Location: Morisset
(33.1080°S, 151.4871°E)
Time: 07:09:33
(UTC+00:00)

ARIANE 5 R/B - Pass Details

Date: 29 October 2020
Orbit: 748 x 795 km, 98.6° (Epoch: 27 November)

Event Time Altitude Azimuth Distance (km) Brightness Sun altitude
Exits shadow 15:41:10 38° 150° (SSE) 1,205 3.8 -34.7°
Drops below altitude 10° 15:44:46 10° 180° (S) 2,385 5.6 -34.2°
Sets 15:47:11 0° 185° (S) 3,325 6.4 -33.9°
